Printer-friendly version

IAU Minor Planet Center

Minor Planet Center

MPEC 2006-A07 : 2005 YQ127

The following Minor Planet Electronic Circular may be linked-to from your own Web pages, but must not otherwise be redistributed electronically.


Read MPEC 2006-A06 Read MPEC 2006-A08


M.P.E.C. 2006-A07                                Issued 2006 Jan. 2, 23:55 UT

     The Minor Planet Electronic Circulars contain information on unusual
         minor planets and routine data on comets.  They are published
   on behalf of Commission 20 of the International Astronomical Union by the
          Minor Planet Center, Smithsonian Astrophysical Observatory,
                          Cambridge, MA 02138, U.S.A.

                  Supported in part by the Brinson Foundation
                  Supported in part by the TABASGO Foundation
             Prepared using the Tamkin Foundation Computer Network

                              MPC@CFA.HARVARD.EDU
          URL http://cfa-www.harvard.edu/iau/mpc.html  ISSN 1523-6714

                                  2005 YQ127

Additional Observations:
     K05YC7Q  C2005 12 30.26642 05 56 31.84 +24 56 13.6          17.5   EA007704
     K05YC7Q  C2005 12 30.27969 05 56 31.21 +24 56 02.1          17.6   EA007704
     K05YC7Q  C2005 12 30.29326 05 56 30.60 +24 55 49.8          17.9   EA007704
     K05YC7Q  C2005 12 30.30638 05 56 29.95 +24 55 37.6          17.8   EA007704
     K05YC7Q  C2005 12 30.31965 05 56 29.28 +24 55 25.6          17.6   EA007704
     K05YC7Q  C2005 12 31.11268 05 55 54.64 +24 43 43.6                 EA007691
     K05YC7Q  C2005 12 31.13289 05 55 53.73 +24 43 26.0                 EA007691
     K05YC7Q  C2005 12 31.15311 05 55 52.88 +24 43 07.9                 EA007691
     K05YC7Q  C2005 12 31.26330 05 55 47.65 +24 41 31.8          17.7   EA007704
     K05YC7Q  C2005 12 31.27157 05 55 47.22 +24 41 23.3          17.4   EA007704
     K05YC7Q  C2005 12 31.27659 05 55 47.01 +24 41 19.1          17.7   EA007704
     K05YC7Q  C2005 12 31.28988 05 55 46.35 +24 41 08.1          17.8   EA007704
     K05YC7Q  C2005 12 31.29825 05 55 45.88 +24 41 03.9          18.9   EA007704
     K05YC7Q  C2005 12 31.30330 05 55 45.52 +24 40 56.2          18.1   EA007704
     K05YC7Q  C2005 12 31.31149 05 55 45.36 +24 40 47.7          17.6   EA007704
     K05YC7Q  C2005 12 31.31658 05 55 45.11 +24 40 43.0          17.5   EA007704
     K05YC7Q  C2005 12 31.32477 05 55 44.71 +24 40 35.9          17.4   EA007704
     K05YC7Q  C2006 01 02.20274 05 54 25.47 +24 13 07.7          17.5   EA007704
     K05YC7Q  C2006 01 02.21639 05 54 24.91 +24 12 55.4          17.7   EA007704
     K05YC7Q  C2006 01 02.22964 05 54 24.35 +24 12 43.8          17.7   EA007704
     K05YC7Q  C2006 01 02.24279 05 54 23.71 +24 12 32.4          17.6   EA007704
     K05YC7Q  C2006 01 02.25616 05 54 23.32 +24 12 21.1          18.0   EA007704

Observer details:
691 Steward Observatory, Kitt Peak.  Observer A. F. Tubbiolo R. S. McMillan.
    0.9-m f/3 reflector + CCD.
704 Lincoln Laboratory ETS, New Mexico.  Observers M. Bezpalko, L. Manguso,
    D. Torres, R. Kracke, A. Milner, H. Love.  Measurers J. Stuart, R. Sayer,
    J. Evans, J. Kommers.  1.0-m f/2.15 reflector + CCD.

Orbital elements:
2005 YQ127
Epoch 2005 Dec. 16.0 TT = JDT 2453720.5                 MPC
M   5.67740              (2000.0)            P               Q
n   0.11827740     Peri.  150.13844     +0.37819142     -0.87620876
a   4.1102498      Node   276.21677     +0.77866111     +0.47560698
e   0.5273775      Incl.   17.48644     +0.50065768     -0.07782168
P   8.33           H   14.9           G   0.15
From 29 observations 2005 Dec. 28-2006 Jan. 2.

Ephemeris:
2005 YQ127               a,e,i = 4.11, 0.53, 17                  q = 1.9426
Date    TT    R. A. (2000) Decl.     Delta      r     Elong.  Phase     V
2005 12 26    05 59.88   +26 00.1    1.029    2.010   175.0     2.4    16.7
2006 01 05    05 52.60   +23 33.0    1.072    2.035   163.9     7.7    17.1
2006 01 15    05 47.90   +21 19.5    1.139    2.062   152.5    12.7    17.5
2006 01 25    05 46.38   +19 26.0    1.229    2.093   141.8    16.9    17.8
2006 02 04    05 48.13   +17 54.2    1.337    2.126   132.0    20.2    18.2
2006 02 14    05 52.90   +16 41.7    1.460    2.163   123.0    22.5    18.5
2006 02 24    06 00.25   +15 44.8    1.596    2.201   114.7    24.1    18.8
2006 03 06    06 09.76   +14 59.0    1.741    2.242   107.0    25.0    19.0
2006 03 16    06 21.00   +14 20.0    1.893    2.284    99.8    25.4    19.2
2006 03 26    06 33.58   +13 44.4    2.050    2.328    93.1    25.3    19.5
2006 04 05    06 47.22   +13 09.3    2.211    2.374    86.7    24.9    19.7
2006 04 15    07 01.63   +12 32.7    2.373    2.421    80.6    24.1    19.8
2006 04 25    07 16.58   +11 53.1    2.536    2.469    74.7    23.1    20.0
2006 05 05    07 31.92   +11 09.2    2.697    2.518    69.0    22.0    20.1
2006 05 15    07 47.49   +10 20.5    2.856    2.568    63.4    20.6    20.2

Gareth V. Williams           (C) Copyright 2006 MPC           M.P.E.C. 2006-A07

Read MPEC 2006-A06 Read MPEC 2006-A08


Our Web policy. Index to the CBAT/MPC/ICQ pages.


Valid HTML 4.01!